Orbital Elements
The following improved orbital elements by Kenji Muraoka, are from
184 observations 1961 to 1997, including 9 Planets, Moon and 5 minor
planets perturbations and non-gravitational effect of style II.
The mean residual is +/- 0.86 arc seconds.
Epoch = 1997 Aug. 20.0 TT JDT = 2450680.5
T = 1997 Aug. 30.30345 +/- 0.00014 (m.e.) TT
Peri. = 359.33168 +/- 0.00004
Node = 213.30918 +/- 0.00005 (2000.0)
Incl. = 21.08677 +/- 0.00004
q = 0.9968105 +/- 0.0000009 AU
e = 0.6638057 +/- 0.0000003
a = 2.9649833 +/- 0.0000012 AU
n = 0.19305039 +/- 0.00000011
P = 5.105 +/- 0.0000030 years
A1 = +0.002 +/- 0.002
A2 = -0.00112 +/- 0.00002
|